Starlink 4150

operational
NORAD ID: 53134 Int'l Des: 2022-083 Owner: SPXS Country: US Constellation: starlink
LEOCIRCULAR

Über Starlink 4150

Beschreibung wird geladen...

Live-Position

3D-Globus wird geladen...

Nächste Überflüge

Höhenverlauf

Altitude vs Time

uPlot chart will show altitude changes over time

Zweizeiliger Elementsatz

1 53134U 22083C 25352.26561909 .00000540 00000-0 51994-4 0 9997
2 53134 53.2161 179.6458 0001433 96.2411 263.8744 15.08839493188922
Epoch: 18. Dez. 2025 • Age: 10 hours

Aktueller Status

Höhe 544.0 km
Geschwindigkeit 7.59 km/s
Subsatellitenpunkt -15.00°S, 29.79°E
Startdatum 17. Juli 2022
Alter 3.4 years
Typ internet

Technische Details

Klassifizierung Payload
Masse 297.00 kg
Trockenmasse 275.00 kg
Gesamtmasse 297.00 kg
Länge 0.20 m
Durchmesser 2.80 m
Spannweite 9.00 m
Form Box + pan
Hersteller SPXS
Bus-Typ Starlink
Phasenstatus In Orbit
Besitzer/Staat SPXS/US

Große Konstellationen

Loading constellations...